sat.trackr.live / text

‹ back to catalog

IRIDIUM 136

NORAD 42962 · 2017-061H

PAYLOAD ACTIVE UNKNOWN

§ Identity

Operator
Country
US
Launch date
2017-10-09
Launch site
AFWTR
Launch vehicle
Mass (kg)
RCS (m²)

Purposes: comms

External: N2YO · Heavens-Above · Gunter

§ Orbital elements

Epoch: 2026-09-19T22:18:22.673376Z

Period
100.40 min
Inclination
86.4024°
Eccentricity
0.0002182
Mean motion
14.34218101 rev/d
Perigee alt
776.1 km
Apogee alt
779.2 km
Semi-major
7,155.8 km
B*
1.5256e-5
RAAN
345.6710°
Arg perigee
95.2325°
Mean anomaly
264.9119°
Rev number
46,841

§ Raw data

IRIDIUM 1361 42962U 17061H   26262.92942909  .00000063  00000+0  15256-4 0  99912 42962  86.4024 345.6710 0002182  95.2325 264.9119 14.34218101468414

JSON: /api/v1/satellites/42962 · /tle

For live sub-satellite position, see the globe view (requires WebGL).

§ Visibility from observer

Set your observer location to see the next 7 days of passes ≥ 10°. The values pass through the URL so the page stays shareable.

No JS? Fill the form by hand. The geolocation button needs JavaScript.